Date String (YYYY-MM-DD hh:mm:ss) UTC,Instrument flags,Ambient pressure (hPa),Sample flow (lpm),Bypass flow (lpm),Sample temperature (°C),Ambient temperature (°C),ASC tube jacket temperature (°C),LED temperature (°C),Box temperature (°C),Sample RH (%),Span deviation,Mass concentration (μg/m³),Mass concentration (μg/m³),Mass concentration (μg/m³)
DateTimeUTC,F1_M11,P_M11,Q1_M11,Q2_M11,T1_M11,T2_M11,T3_M11,T4_M11,T5_M11,U1_M11,ZSPAN_M11,X0_M11,X2_M11,X1_M11
2021-10-19 12:00:00,,0818.4,5.00,0.00,28.0,26.8,00.0,37.2,29.6,09.6,0000.0,0007.42,0002.93,0001.71
2021-10-19 12:01:00,,0818.4,4.99,0.00,28.0,26.8,00.0,37.2,29.6,09.7,0000.0,0007.60,0003.03,0001.75
2021-10-19 12:02:00,,0818.4,5.00,0.00,28.0,26.8,00.0,37.2,29.5,09.8,0000.0,0008.40,0003.11,0001.79
2021-10-19 12:03:00,,0818.4,5.01,0.00,27.9,26.7,00.0,37.2,29.6,09.8,0000.0,0009.11,0003.13,0001.82
2021-10-19 12:04:00,,0818.4,5.00,0.00,27.9,26.8,00.0,37.2,29.6,10.0,0000.0,0009.66,0003.18,0001.87
2021-10-19 12:05:00,,0818.4,5.01,0.00,27.9,26.7,00.0,37.2,29.5,10.3,0000.0,0009.83,0003.25,0001.93
2021-10-19 12:06:00,,0818.4,5.00,0.00,27.9,26.7,00.0,37.1,29.6,10.4,0000.0,0010.19,0003.33,0001.99
2021-10-19 12:07:00,,0818.4,5.01,0.00,27.9,26.7,00.0,37.1,29.6,10.5,0000.0,0010.25,0003.36,0002.04
2021-10-19 12:08:00,,0818.4,5.00,0.00,27.9,26.7,00.0,37.1,29.6,10.3,0000.0,0010.22,0003.40,0002.08
2021-10-19 12:09:00,,0818.4,5.00,0.00,27.9,26.8,00.0,37.1,29.6,10.1,0000.0,0010.64,0003.45,0002.11
2021-10-19 12:10:00,,0818.4,5.01,0.00,27.9,26.8,00.0,37.1,29.6,10.2,0000.0,0010.59,0003.42,0002.11
2021-10-19 12:11:00,,0818.4,5.00,0.00,27.9,26.8,00.0,37.1,29.6,10.7,0000.0,0010.87,0003.47,0002.16
2021-10-19 12:12:00,,0818.4,4.99,0.00,27.9,26.8,00.0,37.1,29.6,10.5,0000.0,0011.46,0003.48,0002.21
2021-10-19 12:13:00,,0818.4,4.99,0.00,27.9,26.8,00.0,37.1,29.6,10.5,0000.0,0011.35,0003.49,0002.25
2021-10-19 12:14:00,,0818.4,5.01,0.00,27.9,26.8,00.0,37.1,29.6,10.8,0000.0,0011.65,0003.58,0002.34
2021-10-19 12:15:00,,0818.4,5.00,0.00,27.9,26.8,00.0,37.1,29.7,10.8,0000.0,0011.41,0003.64,0002.38
2021-10-19 12:16:00,,0818.5,4.99,0.00,27.9,26.8,00.0,37.1,29.6,10.8,0000.0,0011.35,0003.66,0002.42
2021-10-19 12:17:00,,0818.5,5.01,0.00,27.9,26.8,00.0,37.1,29.6,10.6,0000.0,0011.62,0003.66,0002.43
2021-10-19 12:18:00,,0818.6,5.01,0.00,27.9,26.8,00.0,37.1,29.6,10.4,0000.0,0011.91,0003.68,0002.42
2021-10-19 12:19:00,,0818.7,4.99,0.00,27.9,26.8,00.0,37.1,29.6,10.7,0000.0,0013.22,0003.72,0002.44
2021-10-19 12:20:00,,0818.8,5.00,0.00,27.9,26.8,00.0,37.1,29.6,11.0,0000.0,0013.31,0003.77,0002.50
2021-10-19 12:21:00,,0818.8,5.01,0.00,27.9,26.8,00.0,37.1,29.6,11.1,0000.0,0014.15,0003.85,0002.55
2021-10-19 12:22:00,,0818.9,5.00,0.00,27.9,26.8,00.0,37.0,29.6,11.0,0000.0,0014.45,0003.91,0002.56
2021-10-19 12:23:00,,0819.0,5.00,0.00,27.9,26.8,00.0,37.0,29.6,10.6,0000.0,0014.71,0003.97,0002.56
2021-10-19 12:24:00,,0819.0,4.99,0.00,27.9,26.8,00.0,37.0,29.6,10.1,0000.0,0014.77,0003.99,0002.54
2021-10-19 12:25:00,,0819.0,5.00,0.00,27.9,26.8,00.0,37.0,29.5,09.8,0000.0,0013.94,0003.97,0002.48
2021-10-19 12:26:00,,0819.1,5.01,0.00,27.8,26.8,00.0,37.0,29.6,10.1,0000.0,0013.65,0003.91,0002.44
2021-10-19 12:27:00,,0819.1,4.99,0.00,27.8,26.7,00.0,37.0,29.6,10.2,0000.0,0014.35,0003.88,0002.38
2021-10-19 12:28:00,,0819.1,5.00,0.00,27.8,26.7,00.0,37.0,29.6,10.1,0000.0,0013.74,0003.84,0002.34
2021-10-19 12:29:00,,0819.1,5.01,0.00,27.8,26.7,00.0,37.0,29.5,10.2,0000.0,0013.52,0003.83,0002.32
2021-10-19 12:30:00,,0819.1,5.00,0.00,27.8,26.7,00.0,37.0,29.5,10.2,0000.0,0012.74,0003.78,0002.30
2021-10-19 12:31:00,,0819.1,5.00,0.00,27.8,26.7,00.0,37.0,29.6,10.2,0000.0,0012.16,0003.68,0002.24
2021-10-19 12:32:00,,0819.1,5.00,0.00,27.8,26.7,00.0,37.0,29.6,10.6,0000.0,0011.82,0003.65,0002.22
2021-10-19 12:33:00,,0819.2,5.02,0.00,27.8,26.7,00.0,37.0,29.5,10.4,0000.0,0011.97,0003.59,0002.19
2021-10-19 12:34:00,,0819.1,5.00,0.00,27.8,26.7,00.0,37.0,29.5,10.7,0000.0,0011.97,0003.59,0002.21
2021-10-19 12:35:00,,0819.1,5.00,0.00,27.8,26.7,00.0,37.0,29.5,10.6,0000.0,0011.51,0003.59,0002.24
2021-10-19 12:36:00,,0819.1,4.99,0.00,27.8,26.7,00.0,37.0,29.5,10.6,0000.0,0011.39,0003.56,0002.27
2021-10-19 12:37:00,,0819.1,5.00,0.00,27.8,26.7,00.0,37.0,29.5,10.9,0000.0,0012.00,0003.60,0002.31
2021-10-19 12:38:00,,0819.1,5.00,0.00,27.8,26.7,00.0,37.0,29.5,11.4,0000.0,0011.68,0003.64,0002.36
2021-10-19 12:39:00,,0819.0,5.01,0.00,27.8,26.7,00.0,37.0,29.6,11.4,0000.0,0012.01,0003.73,0002.43
2021-10-19 12:40:00,,0819.0,4.99,0.00,27.8,26.7,00.0,37.0,29.6,11.5,0000.0,0012.21,0003.82,0002.50
2021-10-19 12:41:00,,0819.0,4.99,0.00,27.8,26.8,00.0,37.0,29.6,11.4,0000.0,0012.37,0003.91,0002.56
2021-10-19 12:42:00,,0819.0,5.01,0.00,27.8,26.8,00.0,37.0,29.6,11.6,0000.0,0012.70,0004.04,0002.62
2021-10-19 12:43:00,,0818.9,5.00,0.00,27.8,26.8,00.0,37.0,29.6,11.7,0000.0,0012.18,0004.07,0002.66
2021-10-19 12:44:00,,0818.9,4.99,0.00,27.8,26.8,00.0,37.0,29.6,11.9,0000.0,0011.59,0004.09,0002.73
2021-10-19 12:45:00,,0818.9,5.00,0.00,27.8,26.8,00.0,37.0,29.6,12.2,0000.0,0010.99,0004.15,0002.77
2021-10-19 12:46:00,,0818.9,4.99,0.00,27.8,26.8,00.0,37.0,29.6,12.5,0000.0,0011.31,0004.21,0002.82
2021-10-19 12:47:00,,0818.9,5.00,0.00,27.8,26.8,00.0,37.0,29.6,12.4,0000.0,0011.64,0004.33,0002.88
2021-10-19 12:48:00,,0818.9,5.00,0.00,27.8,26.8,00.0,37.0,29.6,12.7,0000.0,0012.53,0004.41,0002.92
2021-10-19 12:49:00,,0818.9,5.01,0.00,27.8,26.7,00.0,37.0,29.5,12.8,0000.0,0013.16,0004.47,0002.96
2021-10-19 12:50:00,,0819.0,4.99,0.00,27.8,26.7,00.0,37.0,29.5,12.8,0000.0,0013.13,0004.44,0002.99
2021-10-19 12:51:00,,0819.0,4.99,0.00,27.7,26.7,00.0,36.9,29.4,12.9,0000.0,0013.30,0004.44,0003.04
2021-10-19 12:52:00,,0819.0,5.00,0.00,27.7,26.7,00.0,36.9,29.4,13.1,0000.0,0013.02,0004.47,0003.09
2021-10-19 12:53:00,,0819.1,5.00,0.00,27.7,26.6,00.0,36.9,29.4,12.9,0000.0,0012.97,0004.46,0003.13
2021-10-19 12:54:00,,0819.1,5.01,0.00,27.7,26.6,00.0,36.9,29.4,12.8,0000.0,0013.84,0004.58,0003.14
2021-10-19 12:55:00,,0819.2,5.00,0.00,27.7,26.7,00.0,36.9,29.4,12.9,0000.0,0014.15,0004.60,0003.14
2021-10-19 12:56:00,,0819.1,4.99,0.00,27.7,26.7,00.0,36.9,29.4,12.9,0000.0,0014.20,0004.59,0003.15
2021-10-19 12:57:00,,0819.1,5.00,0.00,27.7,26.7,00.0,36.9,29.4,12.9,0000.0,0014.21,0004.62,0003.15
2021-10-19 12:58:00,,0819.1,4.99,0.00,27.7,26.7,00.0,36.9,29.4,12.9,0000.0,0014.09,0004.57,0003.16
2021-10-19 12:59:00,,0819.2,5.00,0.00,27.7,26.7,00.0,36.9,29.5,12.8,0000.0,0013.18,0004.60,0003.17
